Flag for Indonesia Weather past 2 weeks in Makassar, South Sulawesi, Indonesia

Now
90 °F

Scattered clouds.


Feels Like: 103 °F
Forecast: 80 / 88 °F
Wind: 9 mph from West

Location: Ujung Pandang / Hasanuddin

Current Time: Mar 29, 2015 at 2:48:14 PM

Latest Report: Mar 29, 2015 at 2:00 PM


Visibility: 6 mi

Pressure: 29.77 "Hg

Humidity: 67%

Dew point: 77 °F

Location of MakassarLocation

Historic Weather in Makassar — Graph

°F

Makassar temperature yesterday

Maximum temperature yesterday: 91 °F (at 1:00 PM)
Minimum temperature yesterday: 75 °F (at 4:00 AM)
Average temperature yesterday: 83 °F

Past Weeks' High & Low Weather Summary

 TemperatureHumidityPressure
High91 °F (Mar 19, 11:00 AM)100% (Mar 14, 9:30 PM)29.98 "Hg (Mar 14, 9:30 PM)
Low73 °F (Mar 14, 7:00 PM)55% (Mar 27, 10:30 AM)29.74 "Hg (Mar 18, 3:30 PM)
Average81 °F85%29.87 "Hg
* Reported Mar 14 1:00 PM — Mar 29 1:30 PM, Makassar, Weather by CustomWeather, © 2015

Note: Actual official high and low records may vary slightly from our data, if they occured in-between our weather recording intervals... More about our weather records

Advertising

Makassar weather history for previous 24 hours

 ConditionsComfort  
Time TempWeatherWind HumidityBarometerVisibility
1:30 PM
Sun, Mar 29
90 °FScattered clouds.9 mph71%29.80 "Hg6 mi
1:00 PM91 °FScattered clouds.9 mph67%29.80 "HgN/A
12:30 PM91 °FScattered clouds.6 mph63%29.80 "HgN/A
12:00 PM91 °FPassing clouds.2 mph56%29.83 "HgN/A
11:00 AM91 °FPassing clouds.1 mph59%29.86 "HgN/A
10:30 AM90 °FPassing clouds.3 mph63%29.86 "HgN/A
10:00 AM88 °FPassing clouds.3 mph66%29.86 "HgN/A
9:30 AM90 °FPassing clouds.2 mph63%29.89 "HgN/A
9:00 AM86 °FPassing clouds.3 mph66%29.89 "HgN/A
8:30 AM84 °FPassing clouds.3 mph74%29.89 "HgN/A
8:00 AM82 °FPassing clouds.5 mph84%29.89 "HgN/A
7:30 AM81 °FPassing clouds.3 mph84%29.86 "HgN/A
7:00 AM79 °FPassing clouds.2 mph89%29.86 "HgN/A
6:30 AM75 °FPassing clouds.2 mph100%29.83 "Hg6 mi
6:00 AM75 °FPassing clouds.2 mph100%29.83 "Hg6 mi
5:00 AM75 °FPassing clouds.3 mph100%29.80 "Hg5 mi
4:30 AM77 °FPassing clouds.5 mph94%29.83 "Hg5 mi
2:30 AM77 °FPassing clouds.3 mph94%29.83 "Hg5 mi
2:00 AM77 °FPassing clouds.2 mph100%29.83 "Hg5 mi
1:30 AM79 °FPassing clouds.5 mph89%29.83 "Hg5 mi
1:00 AM79 °FPassing clouds.3 mph94%29.86 "Hg5 mi
12:30 AM79 °FPassing clouds.2 mph94%29.86 "Hg5 mi
12:00 AM77 °FPassing clouds.1 mph100%29.86 "Hg5 mi
11:30 PM
Sat, Mar 28
77 °FPassing clouds.No wind100%29.89 "Hg5 mi
11:00 PM79 °FPassing clouds.2 mph94%29.89 "Hg5 mi
10:30 PM79 °FPassing clouds.2 mph100%29.89 "Hg5 mi
10:00 PM79 °FPassing clouds.2 mph100%29.89 "Hg5 mi
9:30 PM79 °FPassing clouds.2 mph100%29.86 "Hg5 mi
9:00 PM79 °FPassing clouds.5 mph100%29.86 "Hg5 mi
8:30 PM81 °FPassing clouds.2 mph89%29.86 "Hg5 mi
8:00 PM81 °FPassing clouds.No wind84%29.83 "Hg5 mi
7:30 PM81 °FPassing clouds.2 mph84%29.83 "Hg5 mi
7:00 PM82 °FPassing clouds.2 mph84%29.83 "Hg5 mi
6:30 PM82 °FPassing clouds.3 mph84%29.80 "Hg5 mi
6:00 PM84 °FScattered clouds.3 mph74%29.80 "Hg5 mi
5:30 PM86 °FScattered clouds.5 mph66%29.77 "Hg6 mi
5:00 PM86 °FScattered clouds.6 mph75%29.77 "Hg6 mi
4:30 PM88 °FThunderstorms. Scattered clouds.6 mph66%29.77 "Hg6 mi
4:00 PM90 °FThunderstorms. Scattered clouds.5 mph63%29.77 "Hg6 mi
3:30 PM90 °FPassing clouds.7 mph67%29.77 "HgN/A
3:00 PM88 °FPassing clouds.7 mph70%29.77 "HgN/A
2:30 PM88 °FPassing clouds.8 mph62%29.77 "HgN/A
2:00 PM88 °FPassing clouds.8 mph66%29.77 "HgN/A
Weather by CustomWeather, © 2015

See weather overviewHow to use our weather pages